Meteo pe oră la Bolshie Tigany

Astăzi, 9 Mai, Duminică

Timp Temperatura Precipitaţii Vânt Presiune Umiditate
00:00 +11°C° 0 mm 4 m/s 749 mmHg 73%
01:00 +11°C° 0 mm 4 m/s 749 mmHg 72%
02:00 +11°C° 0 mm 4 m/s 749 mmHg 72%
03:00 +10°C° 0 mm 4 m/s 749 mmHg 71%
04:00 +11°C° 0 mm 4 m/s 749 mmHg 70%
05:00 +12°C° 0 mm 4 m/s 749 mmHg 70%
06:00 +12°C° 0 mm 5 m/s 749 mmHg 69%
07:00 +14°C° 0 mm 5 m/s 749 mmHg 63%
08:00 +16°C° 0 mm 5 m/s 749 mmHg 58%
09:00 +19°C° 0 mm 5 m/s 749 mmHg 52%
10:00 +20°C° 0 mm 5 m/s 749 mmHg 49%
11:00 +21°C° 0 mm 5 m/s 749 mmHg 46%
12:00 +22°C° 0 mm 5 m/s 749 mmHg 43%
13:00 +22°C° 0 mm 5 m/s 749 mmHg 44%
14:00 +22°C° 0 mm 5 m/s 749 mmHg 44%
15:00 +23°C° 0 mm 4 m/s 749 mmHg 44%
16:00 +21°C° 0 mm 4 m/s 749 mmHg 50%
17:00 +20°C° 0 mm 4 m/s 749 mmHg 56%
18:00 +19°C° 0 mm 3 m/s 749 mmHg 62%
19:00 +18°C° 0 mm 3 m/s 749 mmHg 64%
20:00 +17°C° 0 mm 3 m/s 750 mmHg 66%
21:00 +16°C° 0 mm 3 m/s 750 mmHg 68%
22:00 +16°C° 0 mm 3 m/s 750 mmHg 68%
23:00 +16°C° 0 mm 3 m/s 750 mmHg 68%

Mâine, 10 Mai, Luni

Timp Temperatura Precipitaţii Vânt Presiune Umiditate
00:00 +16°C° 0 mm 3 m/s 750 mmHg 69%
01:00 +14°C° 0.1 mm 3 m/s 750 mmHg 70%
02:00 +14°C° 0.1 mm 3 m/s 751 mmHg 71%
03:00 +15°C° 0.1 mm 2 m/s 751 mmHg 73%
04:00 +15°C° 0 mm 2 m/s 751 mmHg 72%
05:00 +15°C° 0 mm 2 m/s 752 mmHg 72%
06:00 +16°C° 0 mm 1 m/s 752 mmHg 72%
07:00 +17°C° 0 mm 2 m/s 753 mmHg 66%
08:00 +18°C° 0 mm 2 m/s 753 mmHg 61%
09:00 +20°C° 0 mm 2 m/s 753 mmHg 56%
10:00 +21°C° 0 mm 2 m/s 753 mmHg 53%
11:00 +23°C° 0 mm 2 m/s 753 mmHg 51%
12:00 +24°C° 0 mm 2 m/s 754 mmHg 48%
13:00 +23°C° 0.2 mm 2 m/s 754 mmHg 50%
14:00 +22°C° 0.2 mm 3 m/s 754 mmHg 52%
15:00 +22°C° 0.2 mm 3 m/s 754 mmHg 54%
16:00 +20°C° 0.2 mm 4 m/s 755 mmHg 64%
17:00 +17°C° 0.2 mm 5 m/s 755 mmHg 74%
18:00 +15°C° 0.2 mm 6 m/s 755 mmHg 84%
19:00 +14°C° 0.3 mm 6 m/s 756 mmHg 85%
20:00 +13°C° 0.3 mm 6 m/s 756 mmHg 87%
21:00 +12°C° 0.3 mm 5 m/s 757 mmHg 88%
22:00 +12°C° 0 mm 5 m/s 757 mmHg 90%
23:00 +11°C° 0 mm 4 m/s 757 mmHg 91%

Poimâine, 11 Mai, Marţi

Timp Temperatura Precipitaţii Vânt Presiune Umiditate
00:00 +11°C° 0 mm 4 m/s 758 mmHg 93%
01:00 +10°C° 0 mm 4 m/s 758 mmHg 93%
02:00 +9°C° 0 mm 5 m/s 758 mmHg 93%
03:00 +8°C° 0 mm 5 m/s 758 mmHg 93%
04:00 +9°C° 0 mm 5 m/s 759 mmHg 92%
05:00 +9°C° 0 mm 5 m/s 759 mmHg 90%
06:00 +9°C° 0 mm 5 m/s 759 mmHg 89%
07:00 +10°C° 0 mm 5 m/s 760 mmHg 85%
08:00 +13°C° 0 mm 5 m/s 760 mmHg 81%
09:00 +14°C° 0 mm 4 m/s 760 mmHg 77%
10:00 +15°C° 0 mm 4 m/s 760 mmHg 73%
11:00 +18°C° 0 mm 4 m/s 760 mmHg 69%
12:00 +19°C° 0 mm 4 m/s 760 mmHg 65%
13:00 +19°C° 0 mm 4 m/s 760 mmHg 63%
14:00 +20°C° 0 mm 4 m/s 760 mmHg 62%
15:00 +20°C° 0 mm 4 m/s 760 mmHg 60%
16:00 +20°C° 0 mm 3 m/s 760 mmHg 63%
17:00 +19°C° 0 mm 3 m/s 760 mmHg 67%
18:00 +19°C° 0 mm 3 m/s 760 mmHg 70%
19:00 +17°C° 0 mm 3 m/s 760 mmHg 72%
20:00 +16°C° 0 mm 3 m/s 761 mmHg 73%
21:00 +14°C° 0 mm 4 m/s 761 mmHg 75%
22:00 +13°C° 0 mm 4 m/s 761 mmHg 75%
23:00 +13°C° 0 mm 4 m/s 761 mmHg 76%

12 Mai, Miercuri

Timp Temperatura Precipitaţii Vânt Presiune Umiditate
00:00 +12°C° 0 mm 4 m/s 761 mmHg 76%
01:00 +12°C° 0 mm 4 m/s 761 mmHg 77%
02:00 +11°C° 0 mm 4 m/s 761 mmHg 79%
03:00 +11°C° 0 mm 4 m/s 761 mmHg 80%
04:00 +12°C° 0 mm 4 m/s 761 mmHg 79%
05:00 +12°C° 0 mm 4 m/s 761 mmHg 78%
06:00 +13°C° 0 mm 4 m/s 761 mmHg 78%
07:00 +15°C° 0 mm 4 m/s 761 mmHg 72%
08:00 +16°C° 0 mm 5 m/s 762 mmHg 67%
09:00 +19°C° 0 mm 5 m/s 762 mmHg 61%
10:00 +20°C° 0 mm 4 m/s 762 mmHg 58%
11:00 +21°C° 0 mm 4 m/s 762 mmHg 55%
12:00 +22°C° 0 mm 4 m/s 762 mmHg 52%
13:00 +22°C° 0 mm 4 m/s 761 mmHg 51%
14:00 +22°C° 0 mm 3 m/s 761 mmHg 49%
15:00 +24°C° 0 mm 3 m/s 761 mmHg 48%
16:00 +22°C° 0 mm 3 m/s 761 mmHg 51%
17:00 +21°C° 0 mm 3 m/s 761 mmHg 54%
18:00 +20°C° 0 mm 3 m/s 761 mmHg 58%
19:00 +19°C° 0 mm 3 m/s 761 mmHg 58%
20:00 +17°C° 0 mm 4 m/s 760 mmHg 58%
21:00 +15°C° 0 mm 4 m/s 760 mmHg 58%
22:00 +14°C° 0 mm 3 m/s 760 mmHg 59%
23:00 +13°C° 0 mm 3 m/s 760 mmHg 61%

13 Mai, Joi

Timp Temperatura Precipitaţii Vânt Presiune Umiditate
00:00 +13°C° 0 mm 3 m/s 760 mmHg 62%
01:00 +12°C° 0 mm 3 m/s 760 mmHg 63%
02:00 +12°C° 0 mm 3 m/s 760 mmHg 64%
03:00 +11°C° 0 mm 3 m/s 760 mmHg 65%
04:00 +12°C° 0 mm 3 m/s 760 mmHg 65%
05:00 +13°C° 0 mm 3 m/s 760 mmHg 66%
06:00 +14°C° 0 mm 3 m/s 760 mmHg 67%
07:00 +17°C° 0 mm 3 m/s 760 mmHg 61%
08:00 +19°C° 0 mm 3 m/s 760 mmHg 55%
09:00 +20°C° 0 mm 4 m/s 760 mmHg 50%
10:00 +22°C° 0 mm 3 m/s 760 mmHg 47%
11:00 +24°C° 0 mm 3 m/s 760 mmHg 45%
12:00 +25°C° 0 mm 3 m/s 760 mmHg 43%
13:00 +25°C° 0 mm 3 m/s 759 mmHg 42%
14:00 +26°C° 0 mm 3 m/s 759 mmHg 42%
15:00 +26°C° 0 mm 2 m/s 759 mmHg 41%
16:00 +25°C° 0 mm 2 m/s 759 mmHg 46%
17:00 +25°C° 0 mm 2 m/s 759 mmHg 51%
18:00 +24°C° 0 mm 2 m/s 759 mmHg 55%
19:00 +23°C° 0 mm 2 m/s 759 mmHg 57%
20:00 +20°C° 0 mm 2 m/s 759 mmHg 58%
21:00 +19°C° 0 mm 2 m/s 758 mmHg 60%
22:00 +18°C° 0 mm 2 m/s 759 mmHg 61%
23:00 +18°C° 0 mm 2 m/s 759 mmHg 62%

14 Mai, Vineri

Timp Temperatura Precipitaţii Vânt Presiune Umiditate
00:00 +17°C° 0 mm 2 m/s 759 mmHg 64%
01:00 +17°C° 0 mm 2 m/s 759 mmHg 64%
02:00 +17°C° 0 mm 2 m/s 759 mmHg 65%
03:00 +16°C° 0 mm 2 m/s 759 mmHg 66%
04:00 +17°C° 0 mm 2 m/s 759 mmHg 67%
05:00 +18°C° 0 mm 2 m/s 759 mmHg 67%
06:00 +18°C° 0 mm 2 m/s 759 mmHg 68%
07:00 +20°C° 0 mm 2 m/s 759 mmHg 61%
08:00 +22°C° 0 mm 3 m/s 759 mmHg 54%
09:00 +25°C° 0 mm 3 m/s 759 mmHg 48%
10:00 +25°C° 0 mm 4 m/s 759 mmHg 43%
11:00 +26°C° 0 mm 4 m/s 759 mmHg 39%
12:00 +27°C° 0 mm 4 m/s 758 mmHg 35%
13:00 +27°C° 0 mm 4 m/s 758 mmHg 35%
14:00 +27°C° 0 mm 4 m/s 758 mmHg 35%
15:00 +28°C° 0 mm 4 m/s 758 mmHg 35%
16:00 +27°C° 0 mm 4 m/s 758 mmHg 42%
17:00 +26°C° 0 mm 3 m/s 757 mmHg 48%
18:00 +25°C° 0 mm 2 m/s 757 mmHg 55%
19:00 +23°C° 0 mm 2 m/s 757 mmHg 56%
20:00 +21°C° 0 mm 2 m/s 757 mmHg 58%
21:00 +20°C° 0 mm 3 m/s 757 mmHg 59%
22:00 +19°C° 0 mm 3 m/s 757 mmHg 61%
23:00 +19°C° 0 mm 3 m/s 756 mmHg 63%
Arată mai mult

Formular de consimțământ

Meteoprog și furnizorii noștri de servicii pot stoca și accesa date personale, precum cookies, identificatori de dispozitiv sau alte tehnologii similare pe dispozitivul dumneavoastră și procesa astfel de date pentru a personaliza conținutul și reclamele, dar și pentru a oferi caracteristici de social media și pentru a analiza traficul.

  • Stocarea și/sau accesarea informațiilor pe dispozitivul dumneavoastră

    Cookies, identificatori de dispozitiv sau alte informații pot fi stocate sau accesate pe dispozitiv în scopurile indicate mai sus.

  • Reclame și conținut personalizat, evaluarea reclamelor și a conținutului, informații despre audiențe și dezvoltarea produselor

    Reclamele și conținutul pot fi personalizate pe baza unui profil. Pot fi adăugate date suplimentare pentru a personaliza mai bine reclamele și conținutul. Performanța reclamelor și conținutului poate fi măsurată. Pot fi obținute informații despre utilizatorii care au văzut reclamele și conținutul. Aceste date pot fi utilizate pentru a dezvolta sau îmbunătăți experiența utilizatorilor, sistemele și software-ul.

Dând clic pe ‘Sunt de acord’, permiteți utilizarea cookie-urilor menționate, a identificatorilor de dispozitiv, balizelor web sau altor tehnologii similare. Setările pot fi modificate din browser-ul dispozitivului dumneavoastră.

În anumite scopuri, interesele legitime pot prima asupra consimțământului. Puteți citi mai multe informații în acest sens în Politica privind Confidențialitatea Datelor și Cookie.